Powrót do katalogu

STARLINK-36318

AktywnyŁącznośćVLEO
NORAD 68048·PAYLOAD·🇺🇸 United States

Wystrzelony Mar 2, 2026 z Vandenberg Space Force Base

Loading…

Następne Przeloty (najbliższe 24 godziny)

TLE

ŚwieżeSource: CelesTrak SupGP

Epoka: Sep 15, 2026, 03:38 UTC

1 68048C 26041J   26258.15187500 -.00046775  00000+0 -13819-2 0  2581
2 68048  53.1584 245.0633 0001333  89.1796 253.1408 15.34414751    16

Śledź STARLINK-36318 w czasie rzeczywistym z AllMySat

Download on the App Store